Content
SEND FEEDBACK

Daily
Averages
Monthly
Summary
France

VICHY, FRANCE


Home > Europe > France
Elevation: 817 feet     Latitude: 46 10N     Longitude: 003 24E

WEATHER
 
SELECT A DAY
Number of Records: 84,745;   Date Range: 7/1/96 - 10/24/14
 
SHARE

PRINT THIS DATA

[ ← Previous Day ]
WEATHER ALMANAC - MARCH 29, 2014
[ Next Day → ]
[ °C ]   °F
Weather ElementAverageHighLow
Temperature51.3 °F65 °F (3:00 pm)32 °F (6:00 am)
Dewpoint33.9 °F39 °F (9:00 pm)29 °F (6:00 am)
Humidity45.1 %88 % (7:00 am)20 % (4:00 pm)
Barometer29.96 in30.01 in (6:00 am)29.90 in (5:00 pm)
Wind Speed5 mph15 mph (4:00 pm)
Weather ElementAverage
Visibility11.9 mi
Wind DirectionSSE (158.3 °)

Weather ElementTotal
Precipitation---
Heating Degree Days16.5 (Base 65)
Averaged from 20 records on March 29, 2014
WEATHER CONDITIONS BREAKOUT
WIND DIRECTION BREAKOUT
WEATHER BY HOUR - MARCH 29, 2014
[ °C ]   °F
Local TimeTemperatureDewpointHumidityBarometerVisibilityWind DirectionWind SpeedGust SpeedPrecipitationEventsConditions
1:00 AM43.0 °F31.0 °F52 %29.99 in12.0 miSE (140°)2.3 mphClear
2:00 AM45.0 °F30.0 °F43 %29.99 in12.0 miSE (140°)4.6 mphClear
3:00 AM40.0 °F31.0 °F59 %29.99 in12.0 miSouth (190°)1.2 mphClear
4:00 AM39.0 °F31.0 °F63 %29.99 in12.0 miSW (220°)1.2 mphClear
5:00 AM35.0 °F31.0 °F78 %30.00 in12.0 miWest (280°)1.2 mphClear
6:00 AM32.0 °F29.0 °F82 %30.01 in12.0 miEast (100°)1.2 mphClear
7:00 AM32.0 °F30.0 °F88 %30.01 in12.0 miCalmClear
8:00 AM36.0 °F32.0 °F79 %30.01 in12.0 miSW (220°)1.2 mphClear
9:00 AM47.0 °F37.0 °F57 %30.00 in12.0 miCalmClear
10:00 AM59.0 °F33.0 °F26 %29.97 in12.0 miSSE (150°)4.6 mphClear
11:00 AM62.0 °F37.0 °F27 %29.96 in12.0 miSouth (170°)8.1 mphClear
2:00 PM64.0 °F35.0 °F23 %29.94 in12.0 miSSE (160°)11.5 mphClear
3:00 PM65.0 °F35.0 °F21 %29.92 in11.0 miSouth (170°)10.4 mphClear
4:00 PM65.0 °F34.0 °F20 %29.91 in12.0 miSouth (170°)15.0 mphClear
5:00 PM64.0 °F34.0 °F21 %29.90 in12.0 miSSE (150°)8.1 mphClear
7:00 PM60.0 °F36.0 °F29 %29.92 in12.0 miSSE (150°)3.5 mphClear
8:00 PM58.0 °F36.0 °F32 %29.94 in12.0 miESE (120°)3.5 mphClear
9:00 PM60.0 °F39.0 °F34 %29.94 in11.0 miESE (110°)8.1 mphClear
10:00 PM60.0 °F39.0 °F33 %29.94 in12.0 miEast (100°)6.9 mphClear
11:00 PM59.0 °F38.0 °F34 %29.94 in12.0 miESE (110°)6.9 mphClear
Hourly data recorded from LFLV, located miles away from Vichy, France







STORIES FROM OUR PARTNERS